Terminal Aerodrome Forecast
Issued by NWS

Home | Current Version | Previous Version | Text Only | Print | Product List | Glossary On
Versions: 1 2 3 4 5 6 7 8 9 10 11 12 13 14 15 16 17 18 19 20 21 22 23 24 25 26 27 28
000
FTUS42 KCAE 201100
TAFCUB
TAF
KCUB 201138Z 2012/2112 VRB05KT P6SM OVC035
      TEMPO 2012/2014 BKN030
     FM201400 02010G17KT P6SM OVC035
     FM201900 36011KT P6SM SCT050 BKN120
     FM210000 VRB04KT P6SM FEW250=

USA.gov is the U.S. government's official web portal to all federal, state and local government web resources and services.